Tracking 26492 objects as of 8-Dec-2022
HD Live streaming from Space Station
objects crossing your sky now

STARLINK-5159

Track STARLINK-5159 now!
10-day predictions
STARLINK-5159 is classified as:


NORAD ID: 53974
Int'l Code: 2022-125L
Perigee: 418.0 km
Apogee: 420.4 km
Inclination: 53.2 °
Period: 92.8 minutes
Semi major axis: 6790 km
RCS: Unknown
Launch date: October 5, 2022
Source: United States (US)
Launch site: AIR FORCE WESTERN TEST RANGE (AFWTR)
aabbcc
Your satellite tracking list
Your tracking list is empty




NASA's NSSDC Master Catalog

Two Line Element Set (TLE):
1 53974U 22125L   22342.00001157 -.00907273  00000-0 -16577-1 0  9994
2 53974  53.2167 140.2151 0001766  37.3918 199.0861 15.51581212  1308
Source of the keplerian elements: AFSPC